Location: Coupvray
(48.8929°N, 2.7967°E)
Time: 08:42:47
(UTC+00:00)

Cosmos 1933 Rocket - Pass Details

Date: 14 July 2020
Orbit: 608 x 629 km, 82.5° (Epoch: 14 August)

Event Time Altitude Azimuth Distance (km) Brightness Sun altitude
Exits shadow 00:23:24 30° 135° (SE) 1,097 4.5 -19.2°
Maximum altitude 00:24:51 40° 92° (E) 908 4.4 -19.2°
Drops below altitude 10° 00:28:55 10° 23° (NNE) 1,974 7.3 -19.1°
Sets 00:31:14 0° 16° (NNE) 2,886 8.6 -19.0°
